Weather reports worldwide

Advertisment
Bale-Mulhouse, France (7299): temperature & dewpoint: 20.03.2019 20:00:00 - 26.03.2019 20:00:00 (CET)Bale-Mulhouse, France (7299): temperature 5cm: 20.03.2019 20:00:00 - 26.03.2019 20:00:00 (CET)Bale-Mulhouse, France (7299): temperature -20cm & temperature -100cm: 20.03.2019 20:00:00 - 26.03.2019 20:00:00 (CET)Bale-Mulhouse, France (7299): wind speed & gusts: 20.03.2019 20:00:00 - 26.03.2019 20:00:00 (CET)Bale-Mulhouse, France (7299): wind direction: 20.03.2019 20:00:00 - 26.03.2019 20:00:00 (CET)Bale-Mulhouse, France (7299): reduced air pressure: 20.03.2019 20:00:00 - 26.03.2019 20:00:00 (CET)Bale-Mulhouse, France (7299): visibility: 20.03.2019 20:00:00 - 26.03.2019 20:00:00 (CET)Bale-Mulhouse, France (7299): precipitation: 20.03.2019 20:00:00 - 26.03.2019 20:00:00 (CET)
Date & Time tt [°C] td [°C] tt 5cm [°C] tt -20cm [°C] tt -100cm [°C] ff [km/h] ff [kn] fx [km/h] fx [kn] dd ppp [hPa] vv [km] rr [mm]
26.03.2019 20:00:00 6,3 -0,9 3,6 8,9 8,1 8 4 21 11 N 1030,5 30 0,0
26.03.2019 19:00:00 7,5 -1,5 6,1 8,9 8,1 13 7 31 17 N 1029,8 30 0,0
26.03.2019 18:00:00 9,0 -1,7 10,3 8,8 8,1 18 10 31 17 N 1029,2 30 0,0
26.03.2019 17:00:00 9,9 -0,9 10,3 8,7 8,1 22 12 37 20 NNW 1029,2 30 0,0
26.03.2019 16:00:00 10,5 -0,9 13,4 8,5 8,1 16 9 34 18 N 1029,2 30 0,0
26.03.2019 15:00:00 10,1 -0,4 12,2 8,2 8,1 18 10 35 19 N 1029,6 30 0,0
26.03.2019 14:00:00 9,9 -0,9 10,8 8,0 8,1 18 10 37 20 N 1030,3 30 0,0
26.03.2019 13:00:00 9,5 -0,4 10,2 7,9 8,1 20 11 37 20 N 1030,6 30 0,0
26.03.2019 12:00:00 8,8 0,7 8,6 7,8 8,1 18 10 36 19 N 1030,6 35 0,0
26.03.2019 11:00:00 7,5 1,3 9,0 7,7 8,1 22 12 35 19 N 1031,2 30 0,0
26.03.2019 10:00:00 8,5 -3,1 10,0 7,8 8,1 16 9 30 16 NE 1030,9 30 0,0
26.03.2019 09:00:00 7,3 -1,4 4,3 7,8 8,1 14 8 30 16 NNE 1030,8 20 0,0
26.03.2019 08:00:00 3,9 2,7 3,0 7,9 8,1 14 8 23 12 N 1031,0 15 0,0
26.03.2019 07:00:00 3,5 2,3 3,0 8,0 8,1 16 9 29 16 N 1030,5 10 0,0
26.03.2019 06:00:00 3,6 2,4 2,7 8,1 8,1 19 10 33 18 N 1030,0 13 0,0
26.03.2019 05:00:00 3,0 2,3 1,0 8,2 8,1 10 6 22 12 N 1029,9 12 0,0
26.03.2019 04:00:00 2,5 1,6 1,5 8,3 8,1 11 6 29 16 NNW 1029,3 14 0,0
26.03.2019 03:00:00 3,8 2,2 3,2 8,4 8,1 12 6 23 13 NNW 1029,1 21 0,0
26.03.2019 02:00:00 3,8 2,5 2,5 8,5 8,1 8 4 19 11 WSW 1029,0 27 0,0
26.03.2019 01:00:00 3,6 2,3 2,3 8,6 8,1 10 5 18 10 NW 1028,4 13 0,0
26.03.2019 00:00:00 3,5 1,7 2,5 8,7 8,0 11 6 34 18 NNW 1028,3 46 0,2
25.03.2019 23:00:00 4,7 2,1 3,6 8,8 8,0 22 12 35 19 N 1027,6 3,8 0,2
25.03.2019 22:00:00 5,2 0,8 4,0 8,9 8,1 10 5 60 32 WNW 1027,0 18 0,0
25.03.2019 21:00:00 6,8 -1,1 3,5 9,0 8,1 13 7 20 11 NW 1026,3 15 0,0
25.03.2019 20:00:00 6,2 -1,9 3,8 9,1 8,1 8 5 27 15 WNW 1026,0 30 0,0
25.03.2019 19:00:00 7,6 -2,2 6,9 9,1 8,0 23 12 40 22 NW 1025,2 30 0,0
25.03.2019 18:00:00 9,5 -3,1 8,9 9,1 8,0 25 14 45 24 NNW 1024,6 40 0,0
25.03.2019 17:00:00 10,6 -3,2 10,6 9,0 8,0 18 10 42 23 NNW 1024,0 40 0,0
25.03.2019 16:00:00 11,3 -4,0 10,4 9,0 8,0 28 15 47 25 NNW 1023,6 40 0,0
25.03.2019 15:00:00 10,2 -1,2 10,6 8,9 8,0 19 11 33 18 WNW 1024,0 40 0,0
25.03.2019 14:00:00 10,4 -1,3 10,9 8,8 8,0 16 9 32 17 NNW 1024,0 40 0,0
25.03.2019 13:00:00 9,6 -1,5 10,4 8,7 8,0 21 11 40 22 NW 1024,8 40 0,0
25.03.2019 12:00:00 10,1 -0,7 10,7 8,7 8,0 21 11 33 18 NNW 1024,8 30 0,0
25.03.2019 11:00:00 10,0 0,3 10,9 8,6 7,9 14 8 30 16 N 1024,9 30 0,0
25.03.2019 10:00:00 9,9 -0,9 9,3 8,7 7,9 14 7 27 15 N 1024,6 30 0,0
25.03.2019 09:00:00 8,2 -0,3 7,3 8,7 7,9 12 7 27 14 NW 1024,8 30 0,0
25.03.2019 08:00:00 7,2 1,3 6,8 8,8 7,9 13 7 23 12 NW 1024,6 20 0,0
25.03.2019 07:00:00 7,2 1,7 6,9 8,8 7,9 15 8 23 12 NNW 1024,3 12 0,0
25.03.2019 06:00:00 8,3 4,5 7,6 8,9 7,9 10 5 16 9 WNW 1023,8 8 0,0
25.03.2019 05:00:00 8,2 4,6 7,6 8,9 7,9 9 5 14 8 WNW 1023,5 7 0,0
25.03.2019 04:00:00 8,3 4,7 7,5 9,0 7,9 9 5 18 10 NNW 1023,4 7 0,0
25.03.2019 03:00:00 8,4 4,6 4,6 9,1 7,8 13 7 19 10 NW 1023,3 6 0,0
25.03.2019 02:00:00 6,1 3,6 3,4 9,2 7,9 8 5 16 9 NW 1023,7 5 0,0
25.03.2019 01:00:00 5,8 3,6 1,4 9,4 7,8 7 4 9 5 W 1023,8 4,5 0,0
25.03.2019 00:00:00 6,1 3,1 2,4 9,5 7,8 8 5 11 6 WSW 1024,0 7 0,0
24.03.2019 23:00:00 7,5 3,0 3,2 9,6 7,8 8 4 14 8 WSW 1024,3 7 0,0
24.03.2019 22:00:00 9,8 3,5 6,8 9,6 7,8 10 5 21 12 NNW 1024,2 7 0,0
24.03.2019 21:00:00 10,9 4,1 8,6 9,7 7,8 11 6 25 13 N 1024,0 8 0,0
24.03.2019 20:00:00 12,4 4,8 9,6 9,7 7,8 16 9 26 14 N 1023,5 8 0,0
24.03.2019 19:00:00 12,8 5,2 11,6 9,6 7,8 15 8 31 17 NNW 1022,7 11 0,0
24.03.2019 18:00:00 15,8 4,5 15,7 9,4 7,8 14 8 33 18 NNW 1021,7 18 0,0
24.03.2019 17:00:00 18,0 3,1 18,0 9,1 7,7 18 10 34 18 W 1021,2 18 0,0
24.03.2019 16:00:00 18,8 4,9 21,4 8,8 7,8 16 8 29 16 W 1021,3 16 0,0
24.03.2019 15:00:00 18,9 4,6 21,1 8,5 7,7 11 6 29 16 WNW 1021,7 14 0,0
24.03.2019 14:00:00 17,3 5,6 18,9 8,2 7,8 13 7 24 13 NW 1022,5 9 0,0
24.03.2019 13:00:00 16,1 6,5 17,4 7,9 7,7 8 4 19 10 NNW 1023,3 7 0,0
24.03.2019 12:00:00 13,9 6,5 16,5 7,8 7,7 8 4 19 11 NNW 1024,3 5 0,0
24.03.2019 11:00:00 11,6 5,0 15,2 7,7 7,7 7 4 14 8 N 1024,9 4,8 0,0
24.03.2019 10:00:00 9,5 4,9 12,7 7,7 7,7 5 3 9 5 N 1025,7 4,5 0,0
24.03.2019 09:00:00 7,6 4,5 4,7 7,8 7,7 4 2 7 4 SE 1026,2 4,2 0,0
24.03.2019 08:00:00 3,0 2,7 -0,8 7,9 7,6 0 0 4 2 N 1026,9 3,3 0,0
24.03.2019 07:00:00 1,0 0,6 -2,3 8,1 7,7 0 0 4 2 N 1027,1 1,7 0,0
24.03.2019 06:00:00 1,0 0,6 -2,3 8,3 7,7 3 1 5 3 WSW 1027,0 1,4 0,0
24.03.2019 05:00:00 1,7 1,0 -1,5 8,4 7,6 0 0 4 2 N 1026,7 2,3 0,0
24.03.2019 04:00:00 2,6 1,7 -0,6 8,6 7,6 3 2 11 6 W 1026,7 2,9 0,0
24.03.2019 03:00:00 2,8 0,7 -0,3 8,7 7,6 10 5 11 6 WNW 1026,8 3,6 0,0
24.03.2019 02:00:00 5,4 2,2 -0,4 8,9 7,6 9 5 16 9 NW 1026,7 6 0,0
24.03.2019 01:00:00 3,5 0,9 0,0 9,0 7,6 8 4 11 6 NW 1027,2 7 0,0
24.03.2019 00:00:00 6,9 2,4 1,8 9,1 7,6 5 3 10 5 NNE 1026,9 8 0,0
23.03.2019 23:00:00 8,9 2,7 4,8 9,2 7,6 6 3 15 8 NW 1026,6 9 0,0
23.03.2019 22:00:00 9,0 2,8 6,1 9,3 7,6 13 7 19 10 NW 1027,0 10 0,0
23.03.2019 21:00:00 11,1 2,9 - 9,3 7,6 12 7 - - NW 1026,7 11 -
23.03.2019 20:00:00 11,2 2,2 6,5 9,3 7,6 9 5 13 7 NW 1026,5 25 0,0
23.03.2019 19:00:00 14,4 2,0 10,9 9,2 7,6 10 5 19 10 N 1025,7 25 0,0
23.03.2019 18:00:00 17,6 2,7 17,9 9,0 7,5 12 6 20 11 N 1025,1 20 0,0
23.03.2019 17:00:00 18,9 0,9 19,2 8,7 7,5 10 5 21 11 N 1025,1 25 0,0
23.03.2019 16:00:00 19,9 1,8 23,3 8,3 7,5 9 5 19 11 NE 1025,0 25 0,0
23.03.2019 15:00:00 19,7 1,1 22,9 7,9 7,5 10 6 21 11 WNW 1025,3 25 0,0
23.03.2019 14:00:00 19,1 -0,9 20,9 7,6 7,5 10 5 23 12 WNW 1026,0 25 0,0
23.03.2019 13:00:00 18,4 0,9 20,5 7,3 7,5 6 3 16 8 NE 1026,7 25 0,0
23.03.2019 12:00:00 17,6 3,5 20,4 7,1 7,5 4 2 11 6 S 1027,3 25 0,0
23.03.2019 11:00:00 15,0 2,8 17,1 7,0 7,5 5 3 13 7 SSE 1028,2 25 0,0
23.03.2019 10:00:00 11,9 2,1 13,3 7,0 7,5 6 4 14 8 SSE 1029,0 25 0,0
23.03.2019 09:00:00 9,0 2,8 7,0 7,2 7,5 11 6 16 9 SSE 1029,2 20 0,0
23.03.2019 08:00:00 5,7 1,8 -0,9 7,3 7,5 9 5 19 10 SSE 1029,7 20 0,0
23.03.2019 07:00:00 2,0 -0,6 -1,3 7,4 7,5 6 3 12 6 S 1029,9 20 0,0
23.03.2019 06:00:00 2,7 0,1 -2,3 7,6 7,5 9 5 11 6 S 1029,7 20 0,0
23.03.2019 05:00:00 1,5 -0,6 -1,6 7,7 7,5 7 4 13 7 S 1030,0 20 0,0
23.03.2019 04:00:00 3,8 0,1 -1,6 7,8 7,4 11 6 17 9 S 1029,7 20 0,0
23.03.2019 03:00:00 2,6 0,2 -1,4 8,0 7,4 5 3 13 7 S 1029,7 16 0,0
23.03.2019 02:00:00 2,6 0,5 -0,8 8,1 7,4 3 2 6 3 SE 1029,7 20 0,0
23.03.2019 01:00:00 4,1 1,1 -0,4 8,3 7,4 3 1 8 4 SE 1029,4 20 0,0
23.03.2019 00:00:00 3,7 0,9 0,2 8,4 7,4 5 3 8 4 S 1029,7 20 0,0
22.03.2019 23:00:00 5,6 1,9 1,1 8,5 7,4 4 2 8 5 SSW 1029,4 20 0,0
22.03.2019 22:00:00 7,5 3,0 2,8 8,6 7,4 3 1 9 5 SSW 1028,9 30 0,0
22.03.2019 21:00:00 7,2 2,5 3,6 8,6 7,4 4 2 9 5 SW 1028,7 30 0,0
22.03.2019 20:00:00 9,8 3,5 5,4 8,5 7,4 6 4 8 4 SW 1028,2 40 0,0
22.03.2019 19:00:00 14,3 0,9 8,4 8,4 7,4 3 1 8 4 W 1027,4 40 0,0
22.03.2019 18:00:00 18,1 0,7 18,9 8,1 7,4 5 3 12 6 NW 1027,0 40 0,0
22.03.2019 17:00:00 19,4 -0,1 19,5 7,8 7,4 5 3 15 8 W 1026,9 30 0,0
22.03.2019 16:00:00 18,7 -1,2 22,0 7,5 7,4 9 5 19 10 NW 1027,4 30 0,0
22.03.2019 15:00:00 18,3 1,3 22,1 7,0 7,4 5 3 15 8 N 1027,9 30 0,0
22.03.2019 14:00:00 17,5 2,6 19,2 6,7 7,4 7 4 16 8 W 1028,2 20 0,0
22.03.2019 13:00:00 15,9 1,6 18,5 6,4 7,4 4 2 13 7 WNW 1029,0 20 0,0
22.03.2019 12:00:00 14,4 1,6 17,4 6,2 7,4 6 3 16 9 SSE 1029,7 20 0,0
22.03.2019 11:00:00 12,3 1,0 16,1 6,2 7,4 4 2 10 6 S 1030,5 20 0,0
22.03.2019 10:00:00 9,4 1,1 12,9 6,2 7,4 5 3 10 5 SW 1031,2 20 0,0
22.03.2019 09:00:00 7,4 0,4 6,0 6,3 7,4 2 1 7 4 S 1031,4 15 0,0
22.03.2019 08:00:00 3,5 -0,2 -2,4 6,4 7,4 3 2 10 6 SSW 1032,0 15 0,0
22.03.2019 07:00:00 -0,2 -1,6 -4,0 6,6 7,4 3 1 5 3 SSW 1032,4 15 0,0
22.03.2019 06:00:00 0,0 -2,2 -4,1 6,7 7,4 2 1 12 6 E 1031,9 15 0,0
22.03.2019 05:00:00 -0,2 -2,9 -3,8 6,9 7,4 6 4 11 6 S 1032,0 18 0,0
22.03.2019 04:00:00 0,5 -1,7 -3,2 7,0 7,4 3 2 7 4 SSE 1031,7 18 0,0
22.03.2019 03:00:00 1,2 -0,7 -2,8 7,2 7,4 5 3 9 5 SW 1031,5 16 0,0
22.03.2019 02:00:00 0,4 -1,0 -2,5 7,3 7,4 4 2 9 5 NNW 1031,8 15 0,0
22.03.2019 01:00:00 2,3 -1,0 -1,8 7,4 7,4 4 2 8 4 SSW 1031,5 16 0,0
22.03.2019 00:00:00 2,5 -0,6 -1,5 7,5 7,3 5 3 7 4 SSE 1031,6 20 0,0
21.03.2019 23:00:00 2,8 0,4 -0,9 7,7 7,4 5 3 10 5 SW 1031,7 16 0,0
21.03.2019 22:00:00 3,9 0,8 -0,4 7,7 7,4 2 1 6 4 W 1031,7 25 0,0
21.03.2019 21:00:00 5,9 1,6 1,6 7,7 7,3 3 1 15 8 W 1031,3 21 0,0
21.03.2019 20:00:00 6,3 1,0 2,4 7,7 7,4 5 3 8 4 WSW 1031,1 30 0,0
21.03.2019 19:00:00 9,8 0,4 5,2 7,6 7,4 2 1 8 4 WNW 1030,4 40 0,0
21.03.2019 18:00:00 14,2 -1,5 15,3 7,4 7,4 6 3 16 9 NNE 1029,7 40 0,0
21.03.2019 17:00:00 15,3 -0,9 15,7 7,0 7,3 5 3 19 10 NNE 1029,4 40 0,0
21.03.2019 16:00:00 15,0 -1,2 18,3 6,7 7,3 7 4 20 11 NNW 1029,5 40 0,0
21.03.2019 15:00:00 14,3 -0,2 17,1 6,4 7,4 5 3 22 12 E 1030,0 40 0,0
21.03.2019 14:00:00 13,5 -0,9 14,7 6,1 7,4 11 6 21 11 NNE 1030,7 41 0,0
21.03.2019 13:00:00 12,0 -2,3 13,2 5,8 7,4 6 3 18 10 ENE 1031,5 40 0,0
21.03.2019 12:00:00 10,4 -2,0 12,8 5,7 7,4 4 2 16 9 N 1032,3 40 0,0
21.03.2019 11:00:00 8,3 -1,8 11,9 5,7 7,3 8 4 18 10 NW 1032,9 40 0,0
21.03.2019 10:00:00 6,2 -1,2 8,8 5,7 7,4 7 4 14 7 WNW 1033,3 40 0,0
21.03.2019 09:00:00 4,2 -0,4 4,1 5,8 7,4 6 4 11 6 NNW 1033,6 40 0,0
21.03.2019 08:00:00 2,1 -1,2 -4,1 6,0 7,4 0 0 5 3 N 1033,8 25 0,0
21.03.2019 07:00:00 -2,8 -4,1 -5,7 6,1 7,4 2 1 7 4 NE 1034,4 25 0,0
21.03.2019 06:00:00 -2,5 -3,3 -5,6 6,3 7,4 2 1 7 4 SW 1034,1 25 0,0
21.03.2019 05:00:00 -2,6 -3,6 -5,7 6,5 7,4 2 1 6 3 SSW 1033,7 20 0,0
21.03.2019 04:00:00 -2,3 -3,7 -5,2 6,6 7,4 2 1 7 4 SSW 1033,6 21 0,0
21.03.2019 03:00:00 -1,6 -3,0 -4,4 6,8 7,4 4 2 9 5 WSW 1033,8 22 0,0
21.03.2019 02:00:00 -0,6 -2,5 -3,8 6,9 7,4 5 3 9 5 W 1034,3 28 0,0
21.03.2019 01:00:00 0,4 -2,3 -2,6 7,0 7,4 5 3 13 7 NW 1034,3 33 0,0
21.03.2019 00:00:00 2,1 -2,2 -1,7 7,1 7,4 5 3 13 7 NNW 1034,4 50 0,0
20.03.2019 23:00:00 4,5 -3,1 -0,5 7,2 7,4 3 1 20 11 SE 1034,1 50 0,0
20.03.2019 22:00:00 6,3 -2,6 1,9 7,3 7,4 13 7 20 11 ESE 1033,8 50 0,0
20.03.2019 21:00:00 7,5 -3,1 3,4 7,3 7,4 6 3 16 9 ENE 1033,7 50 0,0
20.03.2019 20:00:00 9,0 -1,7 5,8 7,3 7,4 7 4 24 13 NE 1033,5 60 0,0

tt = temperature
td = dewpoint
tt 5cm = temperature 5cm
tt -20cm = temperature -20cm
tt -100cm = temperature -100cm
ff = wind speed
fx = gusts
dd = wind direction
ppp = reduced air pressure
vv = visibility
rr = precipitation

Next stations